Theta_e
327 315 304 305 297 295 292 296 300 301 303 307 310 310 314 322 322 314 343 349 354 355 359 362 364 363 362 361 361 361 361 360 360 360 360 359 360 361 361 361 361 360 359 356 354 354 353 353 353
318 308 302 299 293 289 292 298 299 303 306 309 311 315 324 325 339 340 341 352 354 356 359 360 364 363 362 361 360 360 360 359 359 358 359 360 360 361 361 361 360 358 357 355 354 354 354 353 353
315 306 296 295 291 292 293 299 302 305 308 308 308 311 326 332 341 342 347 353 355 356 358 360 364 363 361 360 360 359 359 359 358 358 359 359 360 360 360 360 359 356 356 353 354 355 355 354 354
303 300 298 289 289 294 298 301 302 304 306 308 307 306 323 347 345 347 351 354 353 355 357 360 361 362 361 360 360 359 359 359 358 358 358 359 359 359 360 360 358 357 354 353 354 355 355 355 354
297 293 286 286 289 294 299 302 302 303 303 303 305 304 318 348 350 349 351 353 352 353 358 358 360 362 361 360 359 360 359 359 358 358 358 358 358 359 359 359 358 357 355 353 354 355 355 354 354
292 291 283 283 288 295 298 301 300 301 302 302 302 305 329 343 348 348 351 352 354 354 358 358 362 361 360 360 359 359 358 358 359 358 358 358 358 358 358 358 358 357 356 354 354 354 354 354 354
290 286 282 282 288 291 296 301 299 299 298 300 302 309 325 337 347 347 348 352 355 356 356 357 358 359 360 359 359 359 358 358 358 357 357 357 358 358 358 357 357 356 355 355 355 354 353 353 353
293 289 283 285 287 289 295 299 298 299 299 303 314 311 319 335 345 346 349 351 353 354 355 355 355 356 355 356 359 358 358 357 356 357 357 357 358 358 358 354 355 355 354 353 354 353 353 352 352
295 286 282 285 287 289 296 294 299 302 300 301 305 322 331 340 346 346 346 347 348 351 353 354 354 354 354 354 356 358 358 358 357 357 357 354 352 354 356 354 355 354 353 352 352 353 353 352 352
291 285 286 292 293 291 295 293 296 298 298 300 302 328 337 340 342 342 342 340 343 345 349 352 352 352 353 353 354 353 354 354 353 353 353 350 349 350 352 354 354 355 354 353 352 352 352 351 346
290 288 291 294 297 297 296 297 298 296 295 298 299 325 334 337 341 341 343 342 343 345 347 350 351 352 352 353 352 352 353 351 351 351 350 348 348 350 350 349 352 350 353 349 348 345 343 342 342
287 291 294 294 297 297 296 299 297 297 298 301 301 315 334 335 334 336 340 344 345 345 347 348 351 351 351 352 350 350 350 350 349 350 349 347 345 345 346 344 344 344 344 342 343 342 342 341 341
286 289 293 297 296 295 297 295 295 296 300 302 302 320 333 333 331 331 335 343 345 344 346 348 349 350 350 350 350 350 349 349 348 349 350 348 344 343 343 343 342 342 343 342 341 341 341 340 340
292 292 293 292 293 294 296 297 296 297 301 301 300 301 328 333 330 332 335 339 341 344 345 348 349 349 350 348 348 349 349 348 348 348 349 348 345 341 342 341 341 341 342 340 340 340 340 339 338
292 289 290 291 293 291 293 291 293 298 300 299 300 300 301 319 326 332 335 338 341 342 344 345 346 347 348 346 347 346 346 347 347 347 349 348 343 342 340 341 337 338 337 336 337 336 336 337 338
290 290 286 289 291 292 293 287 293 297 298 298 300 300 300 300 321 329 334 335 338 339 340 342 344 344 343 341 340 341 342 342 342 343 346 345 343 343 339 339 337 337 337 336 336 334 333 334 335
286 280 283 286 290 292 290 287 295 297 297 297 298 299 300 300 301 319 334 334 336 338 339 340 341 341 337 335 338 338 340 340 342 343 344 344 344 341 338 339 338 337 336 335 336 336 336 331 331
282 282 283 285 290 289 288 286 292 294 296 295 296 297 298 299 300 304 332 336 335 336 338 339 338 337 333 334 338 334 335 337 340 342 342 343 342 340 338 337 337 337 335 334 334 334 335 333 332
288 286 286 287 291 289 289 288 290 293 293 293 294 295 296 297 300 305 331 337 336 336 335 335 334 332 331 330 335 334 332 334 335 340 342 342 342 339 338 338 337 336 335 333 334 333 331 330 331
291 286 286 290 292 290 289 289 292 293 293 294 294 295 295 296 297 304 330 336 338 336 336 335 333 330 332 331 330 334 333 333 334 335 338 339 340 342 341 338 336 335 333 333 333 331 329 329 331
290 287 286 287 292 291 289 287 290 294 295 296 295 296 296 297 296 310 327 334 337 337 336 336 333 330 331 330 329 328 331 331 332 331 332 335 339 341 338 336 336 335 333 331 331 331 330 327 328
286 291 291 290 288 282 289 279 286 291 293 295 296 295 295 296 297 311 324 329 334 334 335 336 333 329 329 330 329 327 326 326 329 330 331 334 335 337 334 333 332 332 330 329 331 332 331 328 325
288 293 291 291 286 283 285 281 284 290 291 294 296 296 296 297 298 310 323 327 331 332 333 331 327 327 327 329 329 328 327 329 331 331 330 331 331 332 333 332 332 331 329 330 330 327 327 327 324
295 292 291 289 286 279 284 283 282 287 291 294 296 297 298 298 298 308 321 326 328 327 323 324 327 325 327 328 330 330 329 330 330 329 328 327 329 330 329 330 329 326 326 326 325 324 323 321 320
294 287 278 278 278 278 284 282 284 291 297 299 298 299 298 300 300 316 323 325 326 325 326 325 325 324 327 327 328 330 329 329 327 325 323 321 319 320 320 321 321 321 321 321 320 319 318 317 316
291 288 278 274 276 277 286 280 286 302 307 311 311 304 310 314 319 323 327 328 327 326 324 321 319 318 319 319 318 318 319 317 316 319 318 316 316 316 317 317 318 318 318 318 317 316 315 316 315
291 287 288 282 282 279 282 286 297 305 306 310 311 313 314 317 317 317 318 319 318 316 315 315 315 315 316 316 316 315 315 315 313 314 314 315 315 316 316 316 316 316 316 316 316 314 314 314 315
295 295 285 285 277 276 281 284 285 297 302 306 307 308 310 315 314 314 314 313 314 314 314 314 314 313 314 315 315 315 313 314 313 313 312 313 313 314 314 314 314 315 314 314 313 313 313 313 313
294 291 290 287 282 278 280 284 295 301 304 304 308 310 309 310 309 309 309 309 310 311 311 311 311 312 312 310 310 310 311 310 312 310 309 310 310 311 311 312 313 313 313 312 311 311 311 310 311
296 291 289 283 280 283 283 285 300 305 307 308 308 308 306 306 306 306 307 307 307 307 307 308 308 307 306 307 307 307 306 307 305 305 305 306 306 307 307 308 308 309 309 310 309 309 309 309 309
Wind_Speed
7 6 2 4 4 5 4 8 3 3 3 3 6 4 5 2 4 5 4 7 11 15 14 14 17 17 18 19 20 20 19 18 18 17 18 18 17 17 15 14 12 12 13 12 11 11 10 10 11
2 1 4 3 5 2 7 5 7 7 4 8 9 5 1 2 3 5 6 5 12 13 13 12 16 16 17 17 18 19 19 19 18 18 17 16 15 14 13 12 11 11 12 11 11 11 10 9 9
2 3 4 5 4 11 7 5 6 5 5 1 4 2 4 5 2 6 4 13 14 12 10 12 16 16 17 18 17 18 19 19 18 18 17 16 14 12 11 9 8 10 10 9 9 9 8 8 8
1 4 4 4 9 9 8 5 1 5 3 3 2 6 5 1 3 2 13 15 14 11 11 17 19 16 15 17 16 16 17 17 17 16 16 15 14 13 11 9 8 8 9 8 8 7 6 6 6
4 3 2 2 8 6 4 3 2 9 5 3 2 5 4 2 5 9 13 15 16 12 12 15 18 17 17 18 16 14 14 15 16 16 15 15 14 12 10 9 9 8 7 7 6 5 4 4 3
3 3 3 6 10 6 5 5 1 4 5 2 4 3 5 2 6 5 10 13 13 15 12 12 18 18 17 16 15 14 13 13 14 15 15 14 13 12 10 9 7 7 7 6 4 3 2 1 0
6 4 6 4 9 13 5 5 5 4 3 4 4 4 5 5 6 8 7 11 15 15 14 10 10 15 19 19 17 15 13 11 12 13 14 14 13 13 11 9 8 6 5 5 3 1 0 2 3
5 5 4 6 7 13 5 5 3 7 6 2 3 5 7 3 10 11 9 8 11 13 13 13 11 10 10 11 18 17 16 14 13 13 13 12 12 11 11 9 7 7 5 4 3 2 3 4 4
5 2 6 7 7 5 5 4 0 1 3 1 3 3 6 11 16 11 11 8 11 11 12 13 13 10 9 9 12 15 17 16 15 15 15 12 6 6 7 7 6 6 6 5 6 6 4 4 5
6 5 11 7 6 4 3 2 2 3 5 3 0 6 6 10 14 13 12 12 12 12 11 11 11 13 10 8 8 8 10 8 8 8 9 7 7 7 7 8 9 7 7 6 4 3 3 4 3
7 8 7 6 6 6 5 5 6 4 6 7 1 7 3 6 10 12 10 13 12 10 9 10 10 10 9 8 8 6 5 5 6 9 8 7 6 6 5 4 5 5 6 2 3 4 2 2 2
6 9 7 6 5 4 4 3 6 9 9 6 3 6 4 7 2 7 10 11 13 12 10 11 10 10 8 9 9 10 8 7 6 8 10 7 5 6 5 3 3 2 2 4 3 1 2 3 3
5 3 9 14 9 7 6 8 8 8 7 9 4 6 7 8 5 3 4 8 12 16 13 13 13 12 9 9 7 9 8 7 8 7 8 7 6 5 4 4 3 4 4 5 5 4 4 3 3
6 12 11 6 7 5 14 22 8 6 8 7 5 10 9 9 10 6 7 9 11 13 14 13 13 10 9 8 9 8 6 6 5 4 5 6 4 4 4 5 6 4 5 5 5 4 4 5 4
4 4 4 10 14 7 7 20 17 7 6 11 8 8 8 10 10 14 15 14 15 12 12 14 12 10 10 7 7 4 3 4 4 3 5 5 4 5 4 3 4 5 4 6 5 4 3 1 2
7 8 10 7 10 8 13 29 4 8 10 11 10 8 9 9 12 11 13 12 10 10 14 12 10 11 8 5 4 4 4 4 4 4 5 8 8 8 7 5 5 5 5 4 3 3 2 3 2
6 4 6 4 9 8 13 1 10 10 9 10 10 9 9 8 7 7 11 12 13 14 13 12 10 11 7 6 5 4 5 4 4 5 6 8 9 9 8 7 6 7 4 4 4 4 4 4 3
5 4 3 9 10 9 9 5 10 4 8 10 11 9 9 9 12 10 12 11 9 9 8 8 7 7 6 5 4 3 3 3 3 4 5 9 8 10 8 6 8 8 6 4 2 3 4 3 1
2 5 12 6 6 9 18 8 11 10 7 7 9 8 8 9 8 8 9 10 8 6 7 11 11 9 8 3 5 3 3 2 2 4 9 6 5 7 7 6 5 5 3 4 6 2 2 2 1
16 6 6 4 4 6 5 8 9 10 6 8 11 11 10 6 6 7 11 14 16 15 13 10 9 8 7 4 3 3 3 2 1 2 3 5 4 5 4 4 5 5 4 6 5 3 2 2 3
20 18 4 4 1 2 1 6 5 8 5 6 7 9 9 12 11 8 11 17 17 17 17 14 11 8 6 7 5 3 3 2 2 1 2 2 5 6 5 4 4 5 6 5 3 4 4 2 0
18 12 8 4 2 4 4 6 5 6 8 5 9 9 11 11 8 10 13 14 19 18 12 13 9 8 6 8 5 4 3 3 2 3 2 4 4 4 5 6 5 6 4 4 4 4 3 3 3
9 18 9 4 4 1 2 2 8 3 5 10 10 11 11 11 12 13 16 19 19 10 10 7 8 7 6 6 5 4 3 2 2 2 5 3 3 3 4 4 4 4 3 3 4 3 3 3 2
9 15 9 4 5 4 6 7 6 5 6 6 6 9 10 8 10 7 7 8 8 7 7 7 9 6 6 6 6 5 4 2 3 3 3 3 2 2 2 3 3 2 3 3 3 2 3 1 0
21 12 5 3 3 8 6 7 10 3 4 3 7 5 5 1 6 8 12 11 11 10 9 8 9 6 6 6 6 3 1 1 1 3 3 5 3 2 3 3 4 3 3 4 4 3 1 1 2
16 14 7 8 7 3 6 6 5 4 5 5 6 6 9 11 9 11 9 9 10 11 9 9 9 8 7 8 6 5 6 4 3 4 4 3 4 4 4 5 5 5 4 3 2 1 1 3 4
15 12 8 8 2 5 5 0 1 7 10 10 9 13 16 15 13 15 15 15 15 15 14 12 12 11 12 11 8 7 5 7 7 7 6 4 4 4 5 5 5 3 3 2 2 0 2 3 4
21 11 8 2 7 6 4 7 5 3 8 9 11 14 16 16 16 15 15 16 16 15 15 14 13 13 13 11 8 5 7 7 6 7 7 6 5 4 4 5 5 4 3 3 3 3 3 4 4
7 13 4 6 5 6 5 4 2 7 7 11 11 12 16 17 16 15 15 14 15 15 14 13 13 12 13 13 8 9 8 9 7 7 7 6 6 6 6 6 5 4 4 4 4 4 6 6 7
11 15 8 6 3 2 4 2 2 6 10 11 13 14 15 18 17 15 14 14 14 12 13 14 13 17 10 6 7 8 8 7 9 9 9 8 8 7 7 7 6 5 6 5 5 6 6 7 8
Wind_Direction
297 311 338 38 50 62 253 256 253 260 275 77 255 228 256 175 178 210 312 162 132 138 143 148 145 139 130 128 128 127 127 126 124 125 128 132 135 138 140 139 141 141 142 141 138 132 130 131 130
323 310 28 78 118 178 250 222 215 232 260 342 318 338 294 295 105 126 111 113 134 135 139 140 139 133 131 131 131 131 131 131 130 130 132 132 132 135 136 136 140 140 142 140 136 133 131 129 124
284 48 102 140 174 223 230 211 180 250 287 314 324 312 311 317 8 173 146 137 131 124 121 141 136 135 136 136 134 134 135 134 133 134 133 129 127 126 126 126 127 133 132 132 130 126 125 126 127
55 13 25 130 212 256 202 148 104 312 34 76 29 319 323 27 325 153 133 127 116 115 124 147 143 132 133 134 133 134 134 132 133 133 131 130 126 122 119 117 118 125 130 133 130 120 124 128 129
32 57 92 233 247 242 256 257 44 311 307 137 18 269 265 47 72 113 126 135 130 122 134 145 144 138 141 140 136 133 134 136 137 136 132 129 125 119 117 121 125 126 128 130 124 116 119 121 130
44 90 105 219 248 243 246 210 259 241 282 6 326 266 254 195 101 104 132 129 129 129 133 142 142 140 140 137 137 135 139 141 140 138 136 133 131 130 128 125 122 118 114 111 106 107 117 126 331
132 103 217 211 244 262 219 202 213 228 287 297 227 242 255 192 141 123 122 130 131 135 137 138 145 145 144 143 140 138 143 142 142 139 137 140 143 142 143 144 138 128 121 115 106 94 330 316 324
119 119 194 223 213 258 205 197 216 163 245 284 147 227 261 128 121 117 117 129 137 142 145 150 150 151 147 146 146 149 150 145 143 141 142 148 153 152 153 155 151 142 138 148 161 202 257 267 290
130 167 211 220 195 237 315 177 252 335 241 341 269 267 283 127 124 124 130 139 150 156 156 161 154 151 145 146 160 152 153 152 154 154 157 154 155 152 153 150 153 155 172 186 199 214 239 287 296
161 193 210 209 203 226 230 286 26 333 334 305 214 284 340 151 144 141 154 164 167 169 169 165 162 161 152 154 155 153 160 161 162 166 167 158 156 159 161 165 168 182 195 208 223 248 301 334 346
201 219 202 218 218 226 233 257 195 193 262 229 246 282 72 126 152 147 151 171 169 163 172 173 164 168 160 155 161 164 163 162 172 170 166 162 161 170 166 170 177 180 192 120 39 35 40 348 309
219 218 197 208 224 237 251 254 278 201 228 205 313 260 159 137 155 153 153 159 163 171 173 177 178 176 167 165 173 174 175 179 180 183 177 168 164 171 161 167 166 91 104 122 120 139 214 236 250
216 221 196 223 233 239 269 241 246 236 275 279 295 256 196 166 166 131 145 150 160 173 177 182 179 185 182 169 171 179 185 183 187 179 179 174 172 170 150 143 149 159 152 148 151 169 177 178 156
198 194 224 224 215 236 252 262 239 97 205 272 253 230 223 201 168 146 161 165 172 174 183 180 190 190 178 178 178 185 189 182 174 174 169 169 152 149 155 162 161 151 159 145 137 145 150 148 140
164 238 259 228 220 210 192 268 239 231 225 266 245 235 240 230 163 185 179 180 179 188 179 187 188 185 188 189 176 164 168 143 147 145 143 145 131 146 125 144 139 150 138 125 114 128 131 270 188
194 229 246 188 178 221 177 255 28 203 192 228 235 212 223 211 206 192 189 178 178 172 186 181 183 186 185 173 151 132 138 135 141 142 145 156 162 159 142 152 153 162 149 122 132 171 189 201 232
223 194 192 194 200 176 183 129 243 204 199 226 232 220 208 222 221 210 197 189 182 184 176 185 183 183 159 139 132 127 135 139 148 147 162 165 168 160 147 164 164 158 159 150 192 213 219 237 214
192 172 185 187 207 206 222 217 282 237 201 222 237 224 203 205 215 198 192 194 184 182 180 178 180 169 144 136 120 98 113 136 150 159 177 168 165 157 152 170 179 179 182 181 268 240 229 272 159
226 186 201 205 204 161 230 240 236 251 230 219 236 239 226 223 237 185 178 172 164 171 180 188 179 172 156 149 156 140 141 133 154 156 168 154 129 146 172 194 177 150 119 204 215 231 295 290 179
231 245 236 258 195 156 225 242 226 249 218 202 206 226 233 201 218 197 162 172 186 191 197 194 195 177 178 130 109 113 136 171 141 167 149 124 143 185 187 182 166 171 144 216 193 168 181 221 197
213 217 196 155 210 138 136 289 215 253 219 222 225 212 209 213 180 194 176 185 187 192 201 200 195 182 162 131 115 91 103 87 107 258 92 188 174 196 173 179 193 163 197 213 158 195 184 210 242
209 189 186 205 98 213 142 268 263 225 269 251 257 224 211 206 181 185 180 178 193 202 190 199 188 160 147 143 142 149 187 167 193 174 170 193 176 178 165 187 171 189 178 178 182 191 184 153 224
207 178 193 191 168 138 229 47 271 244 259 268 253 234 225 205 182 181 184 188 192 176 187 168 117 119 123 136 140 156 194 201 167 150 188 133 181 169 178 183 165 169 186 186 188 123 171 179 172
181 162 157 142 124 263 185 157 275 200 204 286 258 215 220 213 190 180 154 135 147 117 104 101 111 115 135 148 155 163 201 180 140 158 149 128 107 71 102 111 125 135 112 123 116 117 93 74 30
185 155 120 110 162 217 208 149 239 167 11 309 307 4 353 241 138 148 150 146 127 113 114 118 116 106 121 113 103 113 185 106 218 153 131 124 126 92 90 93 103 89 87 79 85 85 107 221 236
197 165 148 160 177 176 117 221 239 50 29 18 41 61 61 64 78 97 104 104 96 91 83 91 93 93 90 84 75 63 64 84 87 83 100 104 114 122 115 105 90 85 91 101 116 137 201 235 239
174 196 172 100 113 104 199 19 349 62 57 66 72 84 88 88 76 82 78 75 79 77 66 69 76 72 63 65 66 63 72 84 96 96 91 86 75 77 70 72 72 56 56 48 42 339 285 272 266
183 157 163 99 157 176 211 165 192 93 109 103 99 96 100 88 81 79 82 84 85 82 81 76 76 70 79 63 55 62 67 57 61 66 63 68 63 51 49 48 37 16 5 1 3 326 309 303 289
126 180 121 116 145 149 135 252 300 144 133 121 97 100 98 90 86 84 82 83 86 92 88 89 85 75 68 60 29 44 36 53 47 53 45 38 42 28 28 20 7 355 353 351 339 312 300 289 286
192 173 146 171 198 115 118 240 112 114 116 116 103 93 92 91 91 86 85 83 82 79 86 88 85 67 49 67 51 41 40 48 53 50 41 35 42 34 31 23 6 350 341 332 317 301 290 282 277